Location: Chateh
(58.6667°N, 118.6000°W)
Time: 10:05:32
(UTC+00:00)

O/OREOS (USA 219) - Pass Details

Date: 15 December 2023
Orbit: 621 x 646 km, 72.0° (Epoch: 22 May)

Event Time Altitude Azimuth Distance (km) Brightness Sun altitude
Exits shadow 14:56:32 16° 310° (NW) 1,671 ? -11.5°
Maximum altitude 14:59:48 40° 246° (WSW) 930 ? -11.1°
Drops below altitude 10° 15:04:02 10° 177° (S) 2,017 ? -10.7°
Sets 15:06:24 0° 170° (S) 2,925 ? -10.4°
